CW5629 Weather Reports


Display with metric or nautical units.
time (UTC)temp
F
wind
direction
speed
MPH
gust
MPH
rain 1hr
in
rain 24hr
in
rain mn
in
humidity
%
barometer
mb
20260903081127 68 219 0.0 1.0 0.00 0.04 0.00 87 1017.8
20260903080114 68 231 0.0 0.0 0.00 0.04 0.00 86 1017.9
20260903075112 68 231 0.0 0.0 0.00 0.04 0.00 86 1017.9
20260903074142 68 224 0.0 1.0 0.00 0.04 0.00 85 1017.9
20260903073111 68 217 0.0 0.0 0.00 0.04 0.00 85 1017.6
20260903072124 68 107 0.0 1.0 0.00 0.04 0.00 87 1017.6
20260903071110 67 216 0.0 1.0 0.00 0.28 0.00 87 1017.5
20260903070124 67 200 0.0 2.0 0.00 0.28 0.00 86 1017.4
20260903065137 67 219 0.0 2.0 0.00 0.28 0.00 87 1017.4
20260903064123 66 192 0.0 2.0 0.00 0.28 0.00 87 1017.6
20260903063136 66 141 0.0 2.0 0.00 0.28 0.00 87 1017.4
20260903062123 66 226 0.0 1.0 0.00 0.28 0.00 87 1017.3
20260903061115 66 191 1.0 6.0 0.00 0.28 0.00 88 1017.3
20260903060145 66 278 0.0 0.0 0.00 0.28 0.00 89 1017.3
20260903055130 66 64 0.0 0.0 0.00 0.28 0.00 91 1017.3
20260903054123 66 133 0.0 0.0 0.00 0.28 0.00 92 1017.4
20260903053136 66 198 0.0 0.0 0.00 0.28 0.00 93 1017.3
20260903052142 65 202 0.0 0.0 0.00 0.28 0.00 93 1017.2
20260903051112 65 202 0.0 0.0 0.00 0.28 0.00 92 1017.1
20260903050145 65 186 0.0 0.0 0.00 0.28 0.00 93 1016.9
20260903045111 65 215 0.0 0.0 0.00 0.28 0.00 92 1017.1
20260903044124 65 215 0.0 0.0 0.00 0.28 0.00 92 1017.0
20260903043137 65 215 0.0 0.0 0.00 0.28 0.00 92 1016.8
20260903042120 65 215 0.0 0.0 0.00 0.28 0.00 92 1016.8
20260903041132 65 215 0.0 0.0 0.00 0.28 0.00 92 1016.9
20260903040116 65 215 0.0 0.0 0.00 0.28 0.00 92 1016.7
20260903035148 65 217 0.0 0.0 0.00 0.28 0.00 92 1016.6
20260903034120 65 218 0.0 0.0 0.00 0.28 0.00 91 1016.8
20260903033124 65 218 0.0 0.0 0.00 0.28 0.00 92 1017.0
20260903032116 65 218 0.0 0.0 0.00 0.28 0.00 92 1016.8
20260903031148 65 218 0.0 0.0 0.00 0.28 0.00 92 1016.8
20260903030113 65 218 0.0 0.0 0.00 0.28 0.00 92 1016.8
20260903025127 65 218 0.0 0.0 0.00 0.28 0.00 91 1016.8
20260903024112 65 218 0.0 0.0 0.00 0.28 0.00 91 1016.9
20260903023124 65 218 0.0 0.0 0.00 0.28 0.00 91 1016.9
20260903022117 65 218 0.0 0.0 0.00 0.28 0.00 91 1016.9
20260903021151 65 218 0.0 0.0 0.00 0.28 0.00 91 1016.8
20260903020116 65 218 0.0 0.0 0.00 0.28 0.00 90 1016.9
20260903015129 65 218 0.0 0.0 0.00 0.28 0.00 90 1016.9
20260903014114 66 218 0.0 0.0 0.00 0.28 0.00 90 1017.0
20260903013127 66 218 0.0 0.0 0.00 0.28 0.00 90 1016.9
20260903012113 66 218 0.0 0.0 0.00 0.28 0.00 90 1016.8
20260903011126 66 236 0.0 2.0 0.00 0.28 0.00 90 1016.8
20260903010123 66 216 0.0 1.0 0.00 0.28 0.00 90 1016.8
20260903005128 66 221 0.0 0.0 0.00 0.28 0.00 89 1016.8
20260903004121 66 222 0.0 0.0 0.00 0.28 0.00 89 1016.8
20260903003128 66 224 0.0 0.0 0.00 0.28 0.00 89 1016.8
20260903002120 66 231 0.0 1.0 0.00 0.28 0.00 89 1017.3
20260903001133 66 207 0.0 1.0 0.00 0.28 0.00 89 1017.1
20260903000116 66 207 0.0 1.0 0.00 0.28 0.00 89 1017.1
20260902235128 66 229 0.0 0.0 0.00 0.28 0.00 89 1017.2
20260902234114 66 216 0.0 2.0 0.00 0.28 0.00 89 1017.4
20260902233126 66 221 0.0 1.0 0.00 0.28 0.00 89 1017.5
20260902232112 66 5 0.0 1.0 0.00 0.28 0.00 89 1017.5
20260902231126 66 90 0.0 2.0 0.00 0.28 0.06 89 1017.4
20260902230139 66 210 0.0 0.0 0.00 0.28 0.06 89 1017.2
20260902225129 66 240 0.0 0.0 0.00 0.28 0.06 88 1017.1
20260902224114 66 201 0.0 1.0 0.00 0.28 0.06 88 1017.2
20260902223127 66 214 0.0 0.0 0.00 0.28 0.06 88 1017.3
20260902222138 66 225 0.0 1.0 0.00 0.28 0.06 88 1017.3
20260902221124 66 220 0.0 1.0 0.00 0.28 0.06 88 1017.4
20260902220137 66 233 0.0 3.0 0.00 0.28 0.06 88 1017.5
20260902215122 66 186 0.0 1.0 0.00 0.28 0.06 88 1017.5
20260902214115 66 214 0.0 1.0 0.00 0.28 0.06 88 1017.3
20260902213121 66 224 0.0 0.0 0.00 0.28 0.06 88 1017.3
20260902212129 66 224 0.0 1.0 0.00 0.28 0.06 88 1017.3
20260902211116 66 224 0.0 0.0 0.00 0.28 0.06 88 1017.3
20260902210130 65 210 0.0 0.0 0.00 0.28 0.06 89 1017.2
20260902205122 65 208 0.0 1.0 0.00 0.28 0.06 89 1017.1
20260902204132 65 205 0.0 0.0 0.00 0.28 0.06 89 1017.0
20260902203118 65 201 0.0 0.0 0.00 0.28 0.06 88 1017.0
20260902202132 65 205 0.0 0.0 0.00 0.28 0.06 88 1017.1
20260902201118 66 236 0.0 0.0 0.00 0.28 0.06 87 1017.1
20260902200112 66 236 0.0 1.0 0.00 0.28 0.06 87 1017.0
20260902195145 66 216 0.0 0.0 0.00 0.28 0.06 86 1016.8
20260902194130 67 211 0.0 1.0 0.00 0.28 0.06 86 1016.7
20260902193122 67 211 0.0 0.0 0.00 0.28 0.06 85 1016.6
20260902192135 68 169 0.0 1.0 0.00 0.28 0.06 84 1016.5
20260902191119 68 224 0.0 1.0 0.00 0.28 0.06 83 1016.4
20260902190112 69 214 0.0 1.0 0.00 0.28 0.06 83 1016.6
20260902185118 69 193 0.0 2.0 0.00 0.28 0.06 82 1016.7
20260902184130 69 181 0.0 3.0 0.00 0.28 0.06 82 1016.7
20260902183121 69 239 0.0 2.0 0.00 0.28 0.06 82 1016.6
20260902182127 70 200 0.0 2.0 0.00 0.28 0.06 82 1016.4
20260902181139 70 220 1.0 4.0 0.00 0.28 0.06 81 1016.3
20260902180130 70 230 0.0 3.0 0.00 0.28 0.06 81 1016.3
20260902175140 70 207 0.0 1.0 0.00 0.28 0.06 81 1016.1
20260902174125 70 103 0.0 4.0 0.00 0.28 0.06 82 1016.1
20260902173115 70 225 0.0 4.0 0.00 0.28 0.06 82 1016.2
20260902172120 71 191 0.0 3.0 0.00 0.28 0.06 82 1016.2
20260902171112 71 224 0.0 4.0 0.00 0.28 0.06 81 1016.2
20260902170146 71 265 0.0 3.0 0.00 0.28 0.06 81 1016.0
20260902165138 71 207 0.0 2.0 0.00 0.28 0.06 81 1016.0
20260902164122 71 314 0.0 3.0 0.00 0.28 0.06 83 1016.1
20260902163115 71 233 0.0 2.0 0.00 0.28 0.06 83 1016.1
20260902162127 70 196 0.0 2.0 0.00 0.28 0.06 83 1016.1
20260902161112 70 236 0.0 3.0 0.00 0.28 0.06 84 1016.1
20260902160125 70 23 0.0 5.0 0.00 0.28 0.06 85 1016.0
20260902155130 71 245 1.0 4.0 0.00 0.28 0.06 85 1016.0
20260902154123 72 232 1.0 5.0 0.00 0.28 0.06 81 1016.1
20260902153136 73 192 0.0 4.0 0.00 0.28 0.06 79 1016.0
20260902152122 74 190 1.0 6.0 0.00 0.28 0.06 76 1016.0
20260902151134 74 228 1.0 5.0 0.00 0.28 0.06 76 1016.0
20260902150120 74 216 2.0 6.0 0.00 0.28 0.06 77 1016.0
20260902145114 73 58 2.0 8.0 0.00 0.28 0.06 79 1015.9
20260902144118 72 205 1.0 5.0 0.00 0.28 0.06 82 1016.0
20260902143131 72 236 1.0 5.0 0.00 0.28 0.06 84 1016.1
20260902142145 71 238 1.0 7.0 0.00 0.28 0.06 84 1016.0
20260902141130 71 208 1.0 6.0 0.00 0.28 0.06 86 1016.1
20260902140123 70 17 0.0 6.0 0.00 0.28 0.06 87 1016.1
20260902135137 69 32 1.0 5.0 0.00 0.28 0.06 87 1016.1
20260902134123 69 180 1.0 4.0 0.00 0.28 0.06 87 1016.2
20260902133136 69 236 1.0 5.0 0.00 0.28 0.06 87 1016.3
20260902132147 69 326 0.0 5.0 0.00 0.28 0.06 88 1016.4
20260902131131 68 211 1.0 4.0 0.00 0.28 0.06 89 1016.5
20260902130124 68 181 0.0 4.0 0.00 0.28 0.06 89 1016.5
20260902125116 68 223 1.0 4.0 0.00 0.28 0.06 88 1016.6
20260902124156 69 43 0.0 4.0 0.00 0.28 0.06 89 1016.6
20260902123140 68 319 1.0 8.0 0.00 0.28 0.06 88 1016.7
20260902122152 68 234 2.0 6.0 0.00 0.28 0.06 88 1016.7
20260902121124 67 66 0.0 7.0 0.00 0.28 0.06 89 1016.6
20260902120130 67 47 0.0 4.0 0.00 0.28 0.06 90 1016.7
20260902115144 67 209 1.0 3.0 0.00 0.28 0.06 89 1016.9
20260902114115 67 236 0.0 4.0 0.00 0.28 0.06 89 1017.1
20260902113121 67 221 0.0 5.0 0.00 0.28 0.06 89 1017.2
20260902112114 67 224 1.0 5.0 0.00 0.28 0.06 90 1017.2
20260902111129 66 196 0.0 6.0 0.00 0.28 0.06 90 1017.3
20260902110124 66 178 1.0 6.0 0.00 0.28 0.06 89 1017.4
20260902105134 66 274 1.0 7.0 0.00 0.28 0.06 88 1017.5
20260902104120 66 236 1.0 6.0 0.00 0.28 0.06 88 1017.5
20260902103133 66 252 1.0 5.0 0.00 0.28 0.06 88 1017.6
20260902102119 67 162 2.0 9.0 0.00 0.28 0.06 87 1017.5
20260902101112 67 267 1.0 7.0 0.00 0.28 0.06 88 1017.6
20260902100119 66 217 1.0 5.0 0.00 0.28 0.06 88 1017.5
20260902095112 66 226 0.0 4.0 0.00 0.28 0.06 90 1017.5
20260902094144 65 217 1.0 5.0 0.00 0.28 0.06 90 1017.6
20260902093136 65 199 1.0 7.0 0.00 0.28 0.06 92 1017.6
20260902092120 64 223 1.0 6.0 0.00 0.28 0.06 92 1017.6
20260902091132 64 240 0.0 2.0 0.00 0.28 0.06 92 1017.7
20260902090117 64 186 0.0 2.0 0.00 0.28 0.06 93 1017.7
20260902085130 63 88 0.0 5.0 0.00 0.28 0.06 93 1017.6
20260902084116 63 205 0.0 2.0 0.00 0.28 0.06 94 1017.6
20260902083111 62 78 0.0 2.0 0.00 0.28 0.06 94 1017.7
20260902082117 62 247 0.0 4.0 0.04 0.28 0.06 94 1018.0